When you browse on this site, cookies collect data to enhance your experience and personalize the content and advertising you see.
Visit our Privacy Policy to learn more. By continuing to use the site, you agree to this use of cookies and data.
  • En España
  • Lista de países
  • Para 7 días
  • Temperatura del agua
  • El tiempo en el mapa
  • Informadores
  • user-avatar
    Iniciar sesión

    Tiempo cada hora Kalemie

    Hoy, 27 Febrero, Jueves

    Tiempo Temperatura Precipitaciones Viento Presión Humedad
    00:00 +26°C° 0 mm 1 mps 704 mmHg 28%
    01:00 +25°C° 0 mm 1 mps 704 mmHg 30%
    02:00 +25°C° 0 mm 1 mps 704 mmHg 31%
    03:00 +24°C° 0 mm 1 mps 704 mmHg 31%
    04:00 +23°C° 0 mm 1 mps 704 mmHg 30%
    05:00 +22°C° 0 mm 1 mps 704 mmHg 30%
    06:00 +24°C° 0 mm 2 mps 705 mmHg 27%
    07:00 +26°C° 0 mm 2 mps 706 mmHg 23%
    08:00 +28°C° 0 mm 2 mps 707 mmHg 19%
    09:00 +31°C° 0 mm 3 mps 707 mmHg 16%
    10:00 +35°C° 0 mm 3 mps 707 mmHg 13%
    11:00 +38°C° 0 mm 4 mps 707 mmHg 9%
    12:00 +40°C° 0 mm 3 mps 706 mmHg 9%
    13:00 +42°C° 0 mm 3 mps 706 mmHg 9%
    14:00 +44°C° 0 mm 3 mps 705 mmHg 9%
    15:00 +43°C° 0 mm 3 mps 704 mmHg 9%
    16:00 +43°C° 0 mm 3 mps 704 mmHg 9%
    17:00 +42°C° 0 mm 3 mps 703 mmHg 10%
    18:00 +38°C° 0 mm 2 mps 703 mmHg 12%
    19:00 +34°C° 0 mm 1 mps 703 mmHg 15%
    20:00 +30°C° 0 mm 1 mps 703 mmHg 18%
    21:00 +29°C° 0 mm 1 mps 703 mmHg 19%
    22:00 +28°C° 0 mm 1 mps 704 mmHg 20%
    23:00 +27°C° 0 mm 1 mps 704 mmHg 21%

    Mañana, 28 Febrero, Viernes

    Tiempo Temperatura Precipitaciones Viento Presión Humedad
    00:00 +24°C° 0 mm 0 mps 703 mmHg 22%
    01:00 +23°C° 0 mm 0 mps 703 mmHg 24%
    02:00 +22°C° 0 mm 0 mps 703 mmHg 25%
    03:00 +22°C° 0 mm 0 mps 703 mmHg 25%
    04:00 +23°C° 0 mm 1 mps 703 mmHg 25%
    05:00 +23°C° 0 mm 1 mps 703 mmHg 25%
    06:00 +25°C° 0 mm 1 mps 705 mmHg 23%
    07:00 +27°C° 0 mm 1 mps 706 mmHg 21%
    08:00 +29°C° 0 mm 1 mps 707 mmHg 18%
    09:00 +32°C° 0 mm 2 mps 707 mmHg 15%
    10:00 +36°C° 0 mm 3 mps 707 mmHg 12%
    11:00 +40°C° 0 mm 5 mps 707 mmHg 9%
    12:00 +41°C° 0 mm 4 mps 706 mmHg 9%
    13:00 +42°C° 0 mm 4 mps 705 mmHg 9%
    14:00 +43°C° 0 mm 4 mps 704 mmHg 9%
    15:00 +43°C° 0 mm 3 mps 704 mmHg 9%
    16:00 +43°C° 0 mm 3 mps 703 mmHg 9%
    17:00 +42°C° 0 mm 3 mps 702 mmHg 9%
    18:00 +38°C° 0 mm 2 mps 702 mmHg 12%
    19:00 +33°C° 0 mm 1 mps 702 mmHg 15%
    20:00 +30°C° 0 mm 1 mps 702 mmHg 17%
    21:00 +27°C° 0 mm 0 mps 703 mmHg 18%
    22:00 +26°C° 0 mm 0 mps 703 mmHg 19%
    23:00 +26°C° 0 mm 0 mps 703 mmHg 19%

    Pasado mañana, 29 Febrero, Sábado

    Tiempo Temperatura Precipitaciones Viento Presión Humedad
    00:00 +25°C° 0 mm 0 mps 703 mmHg 21%
    01:00 +24°C° 0 mm 0 mps 702 mmHg 22%
    02:00 +23°C° 0 mm 0 mps 702 mmHg 23%
    03:00 +23°C° 0 mm 0 mps 702 mmHg 23%
    04:00 +23°C° 0 mm 0 mps 703 mmHg 24%
    05:00 +24°C° 0 mm 1 mps 703 mmHg 24%
    06:00 +26°C° 0 mm 1 mps 704 mmHg 23%
    07:00 +26°C° 0 mm 0 mps 705 mmHg 21%
    08:00 +28°C° 0 mm 0 mps 706 mmHg 20%
    09:00 +34°C° 0 mm 2 mps 706 mmHg 17%
    10:00 +37°C° 0 mm 3 mps 706 mmHg 14%
    11:00 +41°C° 0 mm 4 mps 706 mmHg 11%
    12:00 +42°C° 0 mm 4 mps 705 mmHg 11%
    13:00 +43°C° 0 mm 3 mps 704 mmHg 11%
    14:00 +44°C° 0 mm 3 mps 703 mmHg 11%
    15:00 +44°C° 0 mm 3 mps 702 mmHg 11%
    16:00 +43°C° 0 mm 3 mps 702 mmHg 11%
    17:00 +43°C° 0 mm 3 mps 702 mmHg 11%
    18:00 +39°C° 0 mm 2 mps 702 mmHg 13%
    19:00 +35°C° 0 mm 2 mps 702 mmHg 15%
    20:00 +31°C° 0 mm 1 mps 702 mmHg 17%
    21:00 +30°C° 0 mm 1 mps 702 mmHg 17%
    22:00 +28°C° 0 mm 1 mps 703 mmHg 18%
    23:00 +27°C° 0 mm 1 mps 703 mmHg 19%

    1 Marzo, Domingo

    Tiempo Temperatura Precipitaciones Viento Presión Humedad
    00:00 +26°C° 0 mm 1 mps 703 mmHg 20%
    01:00 +25°C° 0 mm 1 mps 702 mmHg 22%
    02:00 +24°C° 0 mm 1 mps 702 mmHg 23%
    03:00 +24°C° 0 mm 1 mps 702 mmHg 25%
    04:00 +23°C° 0 mm 1 mps 703 mmHg 26%
    05:00 +22°C° 0 mm 1 mps 703 mmHg 28%
    06:00 +25°C° 0 mm 1 mps 704 mmHg 25%
    07:00 +27°C° 0 mm 1 mps 705 mmHg 22%
    08:00 +30°C° 0 mm 1 mps 706 mmHg 18%
    09:00 +33°C° 0 mm 1 mps 706 mmHg 15%
    10:00 +37°C° 0 mm 2 mps 706 mmHg 11%
    11:00 +40°C° 0 mm 3 mps 707 mmHg 8%
    12:00 +42°C° 0 mm 2 mps 706 mmHg 7%
    13:00 +43°C° 0 mm 2 mps 705 mmHg 7%
    14:00 +46°C° 0 mm 2 mps 704 mmHg 6%
    15:00 +45°C° 0 mm 2 mps 703 mmHg 7%
    16:00 +43°C° 0 mm 2 mps 703 mmHg 7%
    17:00 +42°C° 0 mm 2 mps 702 mmHg 8%
    18:00 +37°C° 0 mm 1 mps 702 mmHg 10%
    19:00 +33°C° 0 mm 1 mps 702 mmHg 12%
    20:00 +28°C° 0 mm 0 mps 702 mmHg 14%
    21:00 +29°C° 0 mm 1 mps 703 mmHg 15%
    22:00 +28°C° 0 mm 1 mps 703 mmHg 16%
    23:00 +27°C° 0 mm 2 mps 704 mmHg 17%

    2 Marzo, Lunes

    Tiempo Temperatura Precipitaciones Viento Presión Humedad
    00:00 +26°C° 0 mm 2 mps 704 mmHg 24%
    01:00 +26°C° 0 mm 2 mps 704 mmHg 31%
    02:00 +25°C° 0 mm 3 mps 704 mmHg 38%
    03:00 +25°C° 0 mm 3 mps 704 mmHg 48%
    04:00 +24°C° 0 mm 3 mps 704 mmHg 57%
    05:00 +24°C° 0 mm 3 mps 705 mmHg 67%
    06:00 +25°C° 0 mm 3 mps 705 mmHg 66%
    07:00 +26°C° 0 mm 3 mps 706 mmHg 65%
    08:00 +27°C° 0 mm 3 mps 707 mmHg 63%
    09:00 +31°C° 0 mm 3 mps 707 mmHg 52%
    10:00 +35°C° 0 mm 3 mps 707 mmHg 40%
    11:00 +38°C° 0 mm 3 mps 707 mmHg 28%
    12:00 +40°C° 0 mm 3 mps 706 mmHg 24%
    13:00 +42°C° 0 mm 3 mps 705 mmHg 19%
    14:00 +42°C° 0 mm 2 mps 704 mmHg 15%
    15:00 +42°C° 0 mm 2 mps 704 mmHg 15%
    16:00 +41°C° 0 mm 2 mps 704 mmHg 15%
    17:00 +41°C° 0 mm 2 mps 703 mmHg 15%
    18:00 +38°C° 0 mm 2 mps 703 mmHg 17%
    19:00 +34°C° 0 mm 1 mps 703 mmHg 20%
    20:00 +31°C° 0 mm 1 mps 704 mmHg 23%
    21:00 +29°C° 0 mm 1 mps 704 mmHg 25%
    22:00 +28°C° 0 mm 1 mps 704 mmHg 27%
    23:00 +27°C° 0 mm 1 mps 704 mmHg 28%

    3 Marzo, Martes

    Tiempo Temperatura Precipitaciones Viento Presión Humedad
    00:00 +26°C° 0 mm 1 mps 704 mmHg 33%
    01:00 +26°C° 0 mm 1 mps 704 mmHg 38%
    02:00 +25°C° 0 mm 1 mps 703 mmHg 43%
    03:00 +24°C° 0 mm 1 mps 703 mmHg 46%
    04:00 +24°C° 0 mm 1 mps 703 mmHg 50%
    05:00 +23°C° 0 mm 1 mps 704 mmHg 54%
    06:00 +25°C° 0 mm 1 mps 704 mmHg 50%
    07:00 +27°C° 0 mm 2 mps 705 mmHg 47%
    08:00 +28°C° 0 mm 2 mps 706 mmHg 43%
    09:00 +32°C° 0 mm 2 mps 706 mmHg 32%
    10:00 +37°C° 0 mm 2 mps 707 mmHg 22%
    11:00 +41°C° 0 mm 2 mps 707 mmHg 11%
    12:00 +42°C° 0 mm 2 mps 706 mmHg 10%
    13:00 +43°C° 0 mm 2 mps 705 mmHg 8%
    14:00 +45°C° 0 mm 2 mps 705 mmHg 7%
    15:00 +43°C° 0 mm 2 mps 704 mmHg 7%
    16:00 +42°C° 0 mm 2 mps 704 mmHg 8%
    17:00 +41°C° 0 mm 2 mps 703 mmHg 8%
    18:00 +37°C° 0 mm 1 mps 703 mmHg 10%
    19:00 +33°C° 0 mm 1 mps 703 mmHg 12%
    20:00 +30°C° 0 mm 1 mps 703 mmHg 14%
    21:00 +29°C° 0 mm 1 mps 703 mmHg 15%
    22:00 +26°C° 0 mm 0 mps 704 mmHg 16%
    23:00 +25°C° 0 mm 0 mps 704 mmHg 16%
    Mostrar más